TimeCDT,TemperatureF,Dew PointF,Humidity,Sea Level PressureIn,VisibilityMPH,Wind Direction,Wind SpeedMPH,Gust SpeedMPH,PrecipitationIn,Events,Conditions,WindDirDegrees,DateUTC
12:15 AM,59.0,42.8,55,30.24,10.0,NE,8.1,-,N/A,,Overcast,50,2013-05-26 05:15:00
12:55 AM,59.0,41.0,51,30.23,10.0,ENE,6.9,-,N/A,,Overcast,70,2013-05-26 05:55:00
1:15 AM,57.2,41.0,55,30.24,10.0,NE,10.4,-,N/A,,Overcast,50,2013-05-26 06:15:00
1:55 AM,57.2,42.8,59,30.23,10.0,ENE,6.9,-,N/A,,Mostly Cloudy,60,2013-05-26 06:55:00
2:15 AM,57.2,42.8,59,30.22,10.0,ENE,5.8,-,N/A,,Overcast,60,2013-05-26 07:15:00
2:35 AM,57.2,42.8,59,30.22,10.0,ENE,6.9,-,N/A,,Overcast,70,2013-05-26 07:35:00
2:55 AM,57.2,42.8,59,30.22,10.0,ENE,6.9,-,N/A,,Overcast,60,2013-05-26 07:55:00
3:15 AM,55.4,42.8,63,30.21,10.0,ENE,6.9,-,N/A,,Overcast,60,2013-05-26 08:15:00
3:35 AM,55.4,42.8,63,30.21,10.0,East,5.8,-,N/A,,Mostly Cloudy,80,2013-05-26 08:35:00
3:55 AM,55.4,42.8,63,30.21,10.0,East,6.9,-,N/A,,Scattered Clouds,90,2013-05-26 08:55:00
4:15 AM,55.4,42.8,63,30.21,10.0,ENE,4.6,-,N/A,,Mostly Cloudy,70,2013-05-26 09:15:00
4:35 AM,55.4,44.6,67,30.21,10.0,ENE,5.8,-,N/A,,Scattered Clouds,60,2013-05-26 09:35:00
4:55 AM,55.4,44.6,67,30.21,10.0,East,4.6,-,N/A,,Partly Cloudy,90,2013-05-26 09:55:00
5:35 AM,53.6,44.6,72,30.22,10.0,ENE,4.6,-,N/A,,Clear,70,2013-05-26 10:35:00
5:55 AM,55.4,44.6,67,30.22,10.0,East,3.5,-,N/A,,Clear,90,2013-05-26 10:55:00
6:15 AM,55.4,44.6,67,30.22,10.0,East,5.8,-,N/A,,Clear,90,2013-05-26 11:15:00
6:35 AM,55.4,44.6,67,30.22,10.0,ENE,4.6,-,N/A,,Clear,70,2013-05-26 11:35:00
6:55 AM,55.4,44.6,67,30.22,10.0,East,4.6,-,N/A,,Mostly Cloudy,90,2013-05-26 11:55:00
7:15 AM,57.2,44.6,63,30.21,10.0,ESE,5.8,-,N/A,,Scattered Clouds,110,2013-05-26 12:15:00
7:35 AM,57.2,44.6,63,30.22,10.0,ESE,3.5,-,N/A,,Mostly Cloudy,110,2013-05-26 12:35:00
7:55 AM,59.0,46.4,63,30.23,10.0,East,8.1,-,N/A,,Overcast,80,2013-05-26 12:55:00
8:15 AM,59.0,46.4,63,30.24,10.0,East,6.9,-,N/A,,Overcast,90,2013-05-26 13:15:00
8:35 AM,60.8,46.4,59,30.24,10.0,East,6.9,-,N/A,,Overcast,100,2013-05-26 13:35:00
8:55 AM,62.6,46.4,55,30.24,10.0,ESE,6.9,-,N/A,,Mostly Cloudy,110,2013-05-26 13:55:00
9:15 AM,64.4,46.4,52,30.23,10.0,SE,8.1,-,N/A,,Mostly Cloudy,130,2013-05-26 14:15:00
9:35 AM,64.4,46.4,52,30.23,10.0,ESE,5.8,-,N/A,,Overcast,120,2013-05-26 14:35:00
9:55 AM,64.4,48.2,56,30.23,10.0,ESE,6.9,-,N/A,,Overcast,120,2013-05-26 14:55:00
10:16 AM,66.2,48.2,52,30.23,10.0,East,8.1,-,N/A,,Mostly Cloudy,100,2013-05-26 15:16:00
10:35 AM,68.0,48.2,49,30.23,10.0,East,9.2,16.1,N/A,,Scattered Clouds,90,2013-05-26 15:35:00
11:15 AM,71.6,51.8,50,30.23,10.0,East,10.4,16.1,N/A,,Partly Cloudy,100,2013-05-26 16:15:00
11:35 AM,71.6,51.8,50,30.22,10.0,ESE,9.2,-,N/A,,Clear,110,2013-05-26 16:35:00
11:55 AM,73.4,51.8,47,30.21,10.0,SE,8.1,-,N/A,,Clear,140,2013-05-26 16:55:00
12:15 PM,73.4,51.8,47,30.21,10.0,SE,11.5,16.1,N/A,,Clear,140,2013-05-26 17:15:00
12:55 PM,75.2,53.6,47,30.20,10.0,ESE,10.4,-,N/A,,Scattered Clouds,120,2013-05-26 17:55:00
1:15 PM,75.2,53.6,47,30.19,10.0,SSE,9.2,-,N/A,,Scattered Clouds,160,2013-05-26 18:15:00
1:35 PM,77.0,53.6,44,30.19,10.0,South,10.4,-,N/A,,Scattered Clouds,170,2013-05-26 18:35:00
1:55 PM,77.0,53.6,44,30.18,10.0,SE,8.1,-,N/A,,Overcast,140,2013-05-26 18:55:00
2:35 PM,78.8,55.4,44,30.17,10.0,SE,8.1,-,N/A,,Overcast,140,2013-05-26 19:35:00
2:55 PM,78.8,55.4,44,30.16,10.0,SE,6.9,-,N/A,,Overcast,130,2013-05-26 19:55:00
3:15 PM,80.6,55.4,42,30.15,10.0,SE,8.1,-,N/A,,Overcast,140,2013-05-26 20:15:00
3:35 PM,77.0,55.4,47,30.14,10.0,ESE,5.8,-,N/A,,Overcast,120,2013-05-26 20:35:00
3:55 PM,78.8,57.2,47,30.13,10.0,East,9.2,-,N/A,,Mostly Cloudy,100,2013-05-26 20:55:00
4:15 PM,78.8,55.4,44,30.13,10.0,ESE,9.2,-,N/A,,Partly Cloudy,110,2013-05-26 21:15:00
4:35 PM,78.8,55.4,44,30.12,10.0,East,6.9,-,N/A,,Mostly Cloudy,100,2013-05-26 21:35:00
4:55 PM,78.8,55.4,44,30.12,10.0,SSE,6.9,-,N/A,,Overcast,150,2013-05-26 21:55:00
5:15 PM,78.8,55.4,44,30.11,10.0,SSE,9.2,-,N/A,,Overcast,160,2013-05-26 22:15:00
5:35 PM,78.8,55.4,44,30.10,10.0,SE,6.9,-,N/A,,Scattered Clouds,140,2013-05-26 22:35:00
6:15 PM,78.8,55.4,44,30.09,10.0,SE,4.6,-,N/A,,Partly Cloudy,140,2013-05-26 23:15:00
6:35 PM,78.8,55.4,44,30.09,10.0,SE,4.6,-,N/A,,Clear,130,2013-05-26 23:35:00
6:55 PM,77.0,55.4,47,30.09,10.0,SE,8.1,-,N/A,,Clear,140,2013-05-26 23:55:00
7:15 PM,75.2,55.4,50,30.08,10.0,SE,8.1,-,N/A,,Clear,140,2013-05-27 00:15:00
7:35 PM,75.2,55.4,50,30.08,10.0,SE,6.9,-,N/A,,Clear,140,2013-05-27 00:35:00
7:55 PM,75.2,53.6,47,30.09,10.0,SE,8.1,-,N/A,,Clear,130,2013-05-27 00:55:00
8:15 PM,73.4,55.4,53,30.09,10.0,SE,5.8,-,N/A,,Clear,140,2013-05-27 01:15:00
8:35 PM,73.4,55.4,53,30.09,10.0,SE,5.8,-,N/A,,Clear,140,2013-05-27 01:35:00
8:55 PM,71.6,55.4,57,30.09,10.0,SE,5.8,-,N/A,,Clear,140,2013-05-27 01:55:00
9:15 PM,71.6,55.4,57,30.09,10.0,SE,5.8,-,N/A,,Clear,140,2013-05-27 02:15:00
9:35 PM,71.6,55.4,57,30.09,10.0,SE,5.8,-,N/A,,Clear,140,2013-05-27 02:35:00
9:55 PM,71.6,53.6,53,30.09,10.0,SE,5.8,-,N/A,,Clear,130,2013-05-27 02:55:00
10:15 PM,71.6,53.6,53,30.09,10.0,SE,6.9,-,N/A,,Scattered Clouds,130,2013-05-27 03:15:00
10:35 PM,71.6,53.6,53,30.09,10.0,SE,6.9,-,N/A,,Mostly Cloudy,140,2013-05-27 03:35:00
10:55 PM,69.8,53.6,56,30.09,10.0,SSE,5.8,-,N/A,,Scattered Clouds,150,2013-05-27 03:55:00
11:15 PM,69.8,53.6,56,30.08,10.0,SSE,6.9,-,N/A,,Partly Cloudy,150,2013-05-27 04:15:00
11:35 PM,69.8,53.6,56,30.08,10.0,SSE,4.6,-,N/A,,Clear,160,2013-05-27 04:35:00
11:55 PM,69.8,53.6,56,30.07,10.0,SSE,5.8,-,N/A,,Clear,150,2013-05-27 04:55:00